• în România
  • Lista ţărilor
  • Pe 7 zile
  • Temperatura apei
  • Hartă satelitară
  • Meteo pe hartă
  • Widget-uri
  • user-avatar
    Intrare

    Meteo pe oră la Stepanakert

    Astăzi, 24 Iunie, Sâmbătă

    Timp Temperatura Precipitaţii Vânt Presiune Umiditate
    00:00 +15°C° 0,1 mm 1 m/s 693 mmHg 81%
    01:00 +15°C° 0,1 mm 1 m/s 693 mmHg 82%
    02:00 +15°C° 0,1 mm 1 m/s 693 mmHg 83%
    03:00 +14°C° 0,1 mm 1 m/s 693 mmHg 84%
    04:00 +16°C° 0 mm 1 m/s 693 mmHg 80%
    05:00 +18°C° 0 mm 1 m/s 693 mmHg 77%
    06:00 +19°C° 0 mm 1 m/s 694 mmHg 74%
    07:00 +21°C° 0 mm 1 m/s 694 mmHg 68%
    08:00 +22°C° 0 mm 1 m/s 694 mmHg 61%
    09:00 +24°C° 0 mm 2 m/s 694 mmHg 55%
    10:00 +25°C° 0 mm 2 m/s 693 mmHg 52%
    11:00 +26°C° 0 mm 2 m/s 693 mmHg 49%
    12:00 +27°C° 0 mm 2 m/s 693 mmHg 46%
    13:00 +28°C° 0 mm 2 m/s 692 mmHg 45%
    14:00 +28°C° 0 mm 2 m/s 692 mmHg 44%
    15:00 +28°C° 0 mm 2 m/s 692 mmHg 43%
    16:00 +28°C° 0 mm 2 m/s 691 mmHg 45%
    17:00 +27°C° 0 mm 2 m/s 691 mmHg 47%
    18:00 +27°C° 0 mm 1 m/s 691 mmHg 49%
    19:00 +24°C° 0 mm 1 m/s 691 mmHg 57%
    20:00 +22°C° 0 mm 1 m/s 691 mmHg 65%
    21:00 +19°C° 0 mm 1 m/s 691 mmHg 72%
    22:00 +19°C° 0 mm 1 m/s 691 mmHg 72%
    23:00 +19°C° 0 mm 1 m/s 691 mmHg 72%

    Mâine, 25 Iunie, Duminică

    Timp Temperatura Precipitaţii Vânt Presiune Umiditate
    00:00 +19°C° 0 mm 1 m/s 691 mmHg 71%
    01:00 +18°C° 0 mm 1 m/s 691 mmHg 72%
    02:00 +18°C° 0 mm 1 m/s 691 mmHg 73%
    03:00 +18°C° 0 mm 1 m/s 691 mmHg 74%
    04:00 +19°C° 0 mm 1 m/s 691 mmHg 71%
    05:00 +20°C° 0 mm 1 m/s 691 mmHg 68%
    06:00 +22°C° 0 mm 1 m/s 692 mmHg 64%
    07:00 +24°C° 0 mm 1 m/s 692 mmHg 58%
    08:00 +25°C° 0 mm 2 m/s 692 mmHg 51%
    09:00 +27°C° 0 mm 2 m/s 692 mmHg 44%
    10:00 +28°C° 0,1 mm 3 m/s 692 mmHg 43%
    11:00 +29°C° 0,1 mm 3 m/s 692 mmHg 41%
    12:00 +30°C° 0,1 mm 3 m/s 692 mmHg 39%
    13:00 +30°C° 0,3 mm 3 m/s 692 mmHg 39%
    14:00 +30°C° 0,3 mm 3 m/s 692 mmHg 38%
    15:00 +30°C° 0,3 mm 3 m/s 692 mmHg 38%
    16:00 +30°C° 0,1 mm 3 m/s 692 mmHg 40%
    17:00 +29°C° 0,1 mm 2 m/s 692 mmHg 42%
    18:00 +28°C° 0,1 mm 2 m/s 692 mmHg 44%
    19:00 +26°C° 0 mm 2 m/s 692 mmHg 53%
    20:00 +23°C° 0 mm 2 m/s 692 mmHg 62%
    21:00 +19°C° 0 mm 2 m/s 693 mmHg 71%
    22:00 +19°C° 0 mm 2 m/s 693 mmHg 71%
    23:00 +18°C° 0 mm 2 m/s 693 mmHg 72%

    Poimâine, 26 Iunie, Luni

    Timp Temperatura Precipitaţii Vânt Presiune Umiditate
    00:00 +18°C° 0 mm 2 m/s 693 mmHg 72%
    01:00 +19°C° 0 mm 1 m/s 693 mmHg 73%
    02:00 +18°C° 0 mm 1 m/s 694 mmHg 74%
    03:00 +18°C° 0 mm 1 m/s 694 mmHg 75%
    04:00 +19°C° 0 mm 1 m/s 694 mmHg 72%
    05:00 +20°C° 0 mm 1 m/s 695 mmHg 69%
    06:00 +22°C° 0 mm 1 m/s 695 mmHg 65%
    07:00 +23°C° 0 mm 2 m/s 695 mmHg 60%
    08:00 +25°C° 0 mm 3 m/s 696 mmHg 54%
    09:00 +26°C° 0 mm 3 m/s 696 mmHg 48%
    10:00 +27°C° 0 mm 3 m/s 696 mmHg 46%
    11:00 +28°C° 0 mm 4 m/s 696 mmHg 43%
    12:00 +29°C° 0 mm 4 m/s 695 mmHg 41%
    13:00 +29°C° 0 mm 4 m/s 695 mmHg 42%
    14:00 +30°C° 0 mm 4 m/s 695 mmHg 42%
    15:00 +30°C° 0 mm 4 m/s 694 mmHg 42%
    16:00 +29°C° 0 mm 4 m/s 694 mmHg 45%
    17:00 +28°C° 0 mm 4 m/s 694 mmHg 48%
    18:00 +27°C° 0 mm 3 m/s 694 mmHg 51%
    19:00 +25°C° 0 mm 3 m/s 694 mmHg 58%
    20:00 +21°C° 0 mm 2 m/s 694 mmHg 66%
    21:00 +20°C° 0 mm 1 m/s 694 mmHg 73%
    22:00 +20°C° 0 mm 1 m/s 694 mmHg 73%
    23:00 +19°C° 0 mm 1 m/s 694 mmHg 74%

    27 Iunie, Marţi

    Timp Temperatura Precipitaţii Vânt Presiune Umiditate
    00:00 +19°C° 0 mm 1 m/s 694 mmHg 75%
    01:00 +18°C° 0 mm 1 m/s 694 mmHg 76%
    02:00 +18°C° 0 mm 1 m/s 693 mmHg 77%
    03:00 +16°C° 0 mm 1 m/s 693 mmHg 78%
    04:00 +19°C° 0 mm 1 m/s 694 mmHg 74%
    05:00 +20°C° 0 mm 1 m/s 694 mmHg 70%
    06:00 +20°C° 0 mm 0 m/s 694 mmHg 65%
    07:00 +24°C° 0 mm 1 m/s 694 mmHg 57%
    08:00 +26°C° 0 mm 1 m/s 694 mmHg 49%
    09:00 +28°C° 0 mm 1 m/s 695 mmHg 41%
    10:00 +29°C° 0 mm 2 m/s 694 mmHg 39%
    11:00 +30°C° 0 mm 2 m/s 694 mmHg 36%
    12:00 +32°C° 0 mm 2 m/s 694 mmHg 34%
    13:00 +32°C° 0 mm 2 m/s 693 mmHg 33%
    14:00 +32°C° 0 mm 2 m/s 693 mmHg 33%
    15:00 +34°C° 0 mm 2 m/s 693 mmHg 32%
    16:00 +32°C° 0 mm 2 m/s 693 mmHg 35%
    17:00 +31°C° 0 mm 2 m/s 693 mmHg 37%
    18:00 +31°C° 0 mm 2 m/s 693 mmHg 39%
    19:00 +28°C° 0 mm 2 m/s 693 mmHg 47%
    20:00 +25°C° 0 mm 1 m/s 693 mmHg 55%
    21:00 +22°C° 0 mm 1 m/s 693 mmHg 63%
    22:00 +21°C° 0 mm 1 m/s 693 mmHg 63%
    23:00 +21°C° 0 mm 1 m/s 693 mmHg 64%

    28 Iunie, Miercuri

    Timp Temperatura Precipitaţii Vânt Presiune Umiditate
    00:00 +21°C° 0 mm 1 m/s 693 mmHg 64%
    01:00 +20°C° 0 mm 1 m/s 692 mmHg 65%
    02:00 +20°C° 0 mm 1 m/s 692 mmHg 66%
    03:00 +19°C° 0 mm 1 m/s 692 mmHg 68%
    04:00 +21°C° 0 mm 1 m/s 693 mmHg 64%
    05:00 +22°C° 0 mm 1 m/s 693 mmHg 61%
    06:00 +22°C° 0 mm 0 m/s 694 mmHg 58%
    07:00 +26°C° 0 mm 1 m/s 694 mmHg 51%
    08:00 +27°C° 0 mm 1 m/s 694 mmHg 44%
    09:00 +29°C° 0 mm 2 m/s 694 mmHg 37%
    10:00 +30°C° 0 mm 2 m/s 694 mmHg 34%
    11:00 +31°C° 0 mm 2 m/s 693 mmHg 32%
    12:00 +34°C° 0 mm 3 m/s 693 mmHg 30%
    13:00 +34°C° 0 mm 3 m/s 693 mmHg 30%
    14:00 +34°C° 0 mm 3 m/s 692 mmHg 30%
    15:00 +35°C° 0 mm 3 m/s 692 mmHg 30%
    16:00 +34°C° 0 mm 3 m/s 692 mmHg 32%
    17:00 +33°C° 0 mm 3 m/s 692 mmHg 34%
    18:00 +31°C° 0 mm 3 m/s 691 mmHg 37%
    19:00 +28°C° 0 mm 2 m/s 691 mmHg 43%
    20:00 +25°C° 0 mm 2 m/s 691 mmHg 50%
    21:00 +21°C° 0 mm 2 m/s 691 mmHg 56%
    22:00 +22°C° 0 mm 1 m/s 691 mmHg 56%
    23:00 +21°C° 0 mm 1 m/s 691 mmHg 56%

    29 Iunie, Joi

    Timp Temperatura Precipitaţii Vânt Presiune Umiditate
    00:00 +21°C° 0 mm 1 m/s 691 mmHg 56%
    01:00 +20°C° 0 mm 1 m/s 691 mmHg 56%
    02:00 +20°C° 0 mm 1 m/s 691 mmHg 56%
    03:00 +20°C° 0 mm 1 m/s 691 mmHg 57%
    04:00 +21°C° 0 mm 1 m/s 691 mmHg 54%
    05:00 +22°C° 0 mm 1 m/s 692 mmHg 51%
    06:00 +24°C° 0 mm 1 m/s 692 mmHg 49%
    07:00 +25°C° 0 mm 1 m/s 692 mmHg 44%
    08:00 +27°C° 0 mm 2 m/s 692 mmHg 39%
    09:00 +29°C° 0 mm 2 m/s 692 mmHg 34%
    10:00 +30°C° 0 mm 2 m/s 692 mmHg 33%
    11:00 +31°C° 0 mm 3 m/s 692 mmHg 32%
    12:00 +33°C° 0 mm 3 m/s 692 mmHg 31%
    13:00 +33°C° 0 mm 3 m/s 691 mmHg 31%
    14:00 +34°C° 0 mm 3 m/s 691 mmHg 31%
    15:00 +34°C° 0 mm 3 m/s 691 mmHg 31%
    16:00 +33°C° 0 mm 3 m/s 690 mmHg 34%
    17:00 +31°C° 0 mm 3 m/s 690 mmHg 36%
    18:00 +30°C° 0 mm 3 m/s 690 mmHg 38%
    19:00 +28°C° 0 mm 3 m/s 690 mmHg 45%
    20:00 +25°C° 0 mm 2 m/s 690 mmHg 52%
    21:00 +21°C° 0 mm 2 m/s 690 mmHg 59%
    22:00 +21°C° 0 mm 2 m/s 690 mmHg 58%
    23:00 +21°C° 0 mm 2 m/s 690 mmHg 57%
    Arată mai mult